Location: Angouts
(42.7892°N, 1.1860°E)
Time: 09:55:27
(UTC+00:00)

Daily predictions for brighter satellites

Satellite Brightness Start Highest point End
(mag) Time Altitude Azimuth Time Altitude Azimuth Time Altitude Azimuth
MOS 1-B 4.4 19:37:32 10° SSE 19:43:17 78° ENE 19:49:05 10° NNW
SPOT 1/Viking Rocket 4.0 19:38:27 10° S 19:43:35 65° W 19:48:44 10° NNW
Cosmos 1076 Rocket 3.6 19:39:42 10° N 19:43:56 81° W 19:48:10 10° S
CARTOSAT-1 3.6 19:40:47 10° SSE 19:45:01 67° ENE 19:49:15 10° N
Cosmos 2369 Rocket 4.2 19:42:16 10° NNE 19:45:05 14° NE 19:47:54 10° ENE
CSL-04 Rocket 3.7 19:42:00 10° SSE 19:47:18 76° ENE 19:52:35 10° N
ATLAS 5 CENTAUR R/B 2.7 19:42:25 10° NW 19:47:31 62° WSW 19:53:48 10° SSE
Cosmos 2221 4.4 19:46:56 10° ESE 19:49:13 14° E 19:51:30 10° NE
Cosmos 2344 4.4 19:42:47 10° NNW 19:51:03 58° NE 20:02:24 10° SE
CSL-04 Debris 4.3 19:45:41 10° SSE 19:51:10 89° ENE 19:56:40 10° NNW
Resurs 01 Rocket 1.7 19:48:59 10° SSE 19:53:25 90° NW 19:57:53 10° NNW
USA 186 2.6 19:51:24 10° S 19:54:26 51° W 19:57:33 10° NNW
Cosmos 2237 Rocket 2.3 19:50:46 10° SSW 19:56:27 85° WNW 20:02:12 10° NNE
BREEZE-M DEB (TANK) 2.3 19:53:21 10° SW 19:58:15 73° SSE 20:00:30 10° ENE
Cosmos 1378 4.1 19:56:59 10° SE 19:59:36 22° E 20:02:14 10° NE
USA 308 2.2 19:57:25 10° NW 19:59:55 53° NE 20:02:55 11° ESE
BREEZE-M DEB (TANK) 3.2 19:58:02 10° SW 20:01:09 59° SSE 20:07:42 10° ENE
ATLAS 3B R/B 3.6 19:54:50 10° NNW 20:02:23 48° NE 20:09:48 10° ESE
Cosmos 1980 4.1 19:58:59 10° SSW 20:04:36 69° WNW 20:10:15 10° NNE
Cosmos 923 Rocket 4.2 20:00:26 10° S 20:05:32 51° ESE 20:10:41 10° NNE
Meteor 2-14 Rocket 4.5 19:59:58 10° S 20:06:07 86° E 20:12:18 10° N
SPOT 5 3.5 20:02:24 10° SE 20:06:41 36° ENE 20:10:49 10° N
Aureole 3 Rocket 4.5 20:04:50 10° NNE 20:07:49 21° ENE 20:10:55 12° ESE
Aureole 2 3.9 20:05:39 10° NNW 20:08:34 83° WSW 20:11:25 10° SSE
GEOS 3 Rocket 4.3 20:05:21 10° ENE 20:09:51 30° ESE 20:14:15 10° S
Meteor 2-2 Rocket 4.4 20:04:47 10° S 20:10:44 69° E 20:16:44 10° NNE
Cosmos 1464 Rocket 4.0 20:07:40 10° N 20:13:59 72° E 20:20:12 10° SSE
Okean O Rocket 2.1 20:10:56 10° S 20:15:17 61° WSW 20:19:43 10° NNW
Terra 3.1 20:13:56 12° ESE 20:17:20 26° ENE 20:21:12 10° NNE
ERS-1 Rocket 3.8 20:18:56 14° SE 20:22:46 36° ENE 20:27:19 10° N
MOS 1 4.3 20:17:43 10° SSE 20:23:22 74° ENE 20:29:02 10° N
ATLAS 2AS CENTAUR R/B 3.5 20:16:26 10° SW 20:23:45 61° NW 20:30:50 10° NNE
Cosmos 1782 3.2 20:24:23 10° SSW 20:28:08 61° W 20:31:55 10° N
IRS-1A Rocket 4.5 20:25:20 14° SE 20:30:10 56° ENE 20:35:38 10° N
Meteor 1-26 Rocket 4.5 20:25:38 10° S 20:31:32 61° E 20:37:29 10° NNE
USA 281 4.2 20:27:32 13° ESE 20:32:42 34° NE 20:38:29 10° N
Cosmos 1943 Rocket 2.6 20:30:14 10° NNW 20:35:49 62° WSW 20:41:01 12° S
Cosmos 1420 Rocket 4.3 20:31:37 10° NNW 20:36:50 55° ENE 20:40:30 19° SE
Cosmos 972 4.5 20:33:37 10° SSW 20:38:31 81° WNW 20:43:28 10° NNE
ISS -1.1 20:36:54 10° NW 20:39:15 18° N 20:41:36 10° NE
Cosmos 1743 3.7 20:36:59 10° NNE 20:40:07 27° ENE 20:41:25 22° ESE
Cosmos 2278 Rocket 3.6 20:35:27 10° NW 20:40:28 33° WSW 20:45:27 10° SSW
NOSS 3-1 (A) 4.2 20:33:41 10° NW 20:41:11 80° NE 20:48:11 18° SE
NOSS 3-1 (C) 4.5 20:33:57 10° NW 20:41:27 64° WSW 20:49:24 14° SSE
OAO 2 Rocket 4.2 20:37:48 10° WSW 20:42:31 34° S 20:45:09 21° SE
USA 245 3.0 20:42:40 28° E 20:42:50 28° ENE 20:44:50 10° N
SL-24 R/B - RUBIN 2 4.4 20:38:08 10° SSW 20:44:10 84° ESE 20:50:48 10° NE
Cosmos 2297 4.2 20:42:19 10° NNW 20:47:51 47° ENE 20:51:24 21° SE
Cosmos 2112 Rocket 4.0 20:42:36 10° SSW 20:47:54 75° ESE 20:53:13 10° NNE
Cosmos 1634 Rocket 4.4 20:42:42 10° N 20:48:45 47° ENE 20:52:38 21° SE
Okean-O 3.4 20:45:52 10° S 20:50:08 50° W 20:54:26 10° NNW
USA 290 2.1 20:49:01 10° NNW 20:52:15 88° ENE 20:53:34 33° SSE
Cosmos 1766 Rocket 3.9 20:49:01 10° N 20:53:21 50° ENE 20:55:32 26° SE
Spot 2 Rocket 3.7 20:54:06 24° SE 20:57:00 55° ENE 21:01:56 10° N
Cosmos 2034 Rocket 4.1 20:51:32 10° N 20:57:46 79° W 21:03:12 14° S
Cosmos 1680 Rocket 3.7 20:52:53 10° SSW 20:58:10 76° WNW 21:03:28 10° NNE
Cosmos 1726 3.7 20:56:34 10° NNE 20:58:35 16° ENE 20:58:35 16° ENE
Meteor 2-6 Rocket 4.3 20:58:32 20° SSE 21:02:18 54° E 21:07:42 10° NNE
USA 32 4.0 21:01:10 20° S 21:04:47 70° E 21:10:00 10° N
Gbstr 26 Del rocket 4.4 21:00:16 10° WNW 21:05:48 38° SW 21:08:24 23° S
Tsikada Rocket 3.9 21:00:57 10° S 21:07:07 89° ESE 21:13:24 10° N
SL-16 R/B 2.5 21:07:57 10° SSW 21:13:35 67° WNW 21:19:16 10° NNE
USA 276 3.6 21:13:07 10° NW 21:14:51 19° NNE 21:15:14 19° NNE
Helios 1B 4.4 21:11:12 10° NNE 21:15:32 81° ESE 21:17:56 26° S
MOS 1 Rocket 3.6 21:13:56 31° SE 21:16:13 64° ENE 21:21:23 10° N
Ariane Rocket 2.9 21:16:50 30° SSE 21:19:25 87° ENE 21:24:30 10° NNW
Lacrosse 5 rocket 3.4 21:16:17 10° W 21:20:07 31° NNW 21:23:55 10° NNE
Cosmos 2056 Rocket 3.6 21:15:22 10° NNW 21:20:47 77° WSW 21:23:29 30° S
Lacrosse 5 2.0 21:15:59 10° NW 21:21:03 66° SW 21:23:08 35° SSE
Cosmos 1536 3.9 21:18:30 10° NNE 21:21:54 28° ENE 21:22:15 28° E
Cosmos 1624 Rocket 4.0 21:17:55 10° NNW 21:23:06 74° WSW 21:25:36 31° S
Cosmos 1452 Rocket 4.4 21:20:01 10° N 21:24:50 35° ENE 21:26:45 27° ESE
Cosmos 44 3.1 21:20:21 10° NW 21:25:10 83° WSW 21:26:45 41° SSE
Cosmos 1408 Rocket 4.4 21:21:16 10° N 21:25:21 34° ENE 21:26:12 32° E
Okean 1 4.4 21:26:00 26° E 21:26:00 26° E 21:28:56 10° NNE
Cosmos 2221 3.3 21:22:26 13° SSW 21:26:04 49° WNW 21:30:17 10° N
Spot 1 3.9 21:22:31 10° NNE 21:26:33 63° ESE 21:27:36 45° SSE
Cosmos 2369 Rocket 2.1 21:24:29 10° NNW 21:30:06 75° ENE 21:32:23 37° SE
USA 308 4.4 21:29:20 10° W 21:31:01 16° SW 21:31:01 16° SW
Cosmos 2084 3.0 21:29:34 10° NW 21:33:20 81° NE 21:33:53 62° SE
FALCON 9 R/B 3.8 21:28:11 10° WSW 21:34:11 52° S 21:55:07 10° ESE
Cosmos 921 Rocket 3.8 21:37:33 15° SW 21:41:08 53° WNW 21:45:33 10° N
Okean 3 Rocket 3.5 21:42:39 10° N 21:47:03 78° W 21:48:05 51° S
GEOS 3 Rocket 4.5 21:43:00 10° NNE 21:48:00 50° NW 21:52:53 10° WSW
SL-8 R/B 3.5 21:48:23 10° WSW 21:53:07 80° SSE 21:57:54 10° ENE
ATLAS 3B R/B 3.6 21:45:48 10° NW 21:53:13 47° WSW 21:57:02 27° S
Landsat 5 3.4 21:50:29 10° N 21:54:14 66° WNW 21:54:55 52° SW
Terra 3.0 21:52:39 24° SW 21:54:45 35° W 21:59:05 10° NNW
Cosmos 1943 3.1 21:53:56 30° SSW 21:56:53 87° ESE 22:02:36 10° NNE
Cosmos 1500 Rocket 3.6 21:53:29 10° N 21:57:45 56° E 21:57:58 55° E
Cosmos 1733 4.2 21:57:30 10° N 22:00:07 33° NE 22:00:07 33° NE
Cosmos 1048 Rocket 4.0 21:59:00 33° SSW 22:01:22 78° WNW 22:06:32 10° NNE
H-2A R/B 4.0 22:02:30 23° ENE 22:02:40 23° ENE 22:05:58 10° NNE
Cosmos 1842 Rocket 4.4 22:01:41 30° SW 22:03:30 47° WNW 22:07:48 10° N
Meteor 1-10 Rocket 4.3 22:02:23 34° SSW 22:04:58 77° W 22:10:41 10° N
Cosmos 1805 Rocket 3.7 22:02:21 10° N 22:06:41 58° E 22:06:48 57° E
Cosmos 1656 Rocket 4.4 22:01:56 10° NW 22:07:02 41° WSW 22:08:45 32° SSW
Cosmos 1151 Rocket 3.7 22:08:38 42° ENE 22:08:38 42° ENE 22:12:21 10° NNE
Meteor 2-9 Rocket 4.2 22:07:40 10° N 22:13:30 78° E 22:14:56 53° SSE
Meteor 1-19 Rocket 4.2 22:14:06 49° S 22:15:47 81° E 22:21:38 10° NNE
ARIANE 5 R/B 2.9 22:16:04 51° ENE 22:16:09 51° ENE 22:20:21 10° N
ISS -2.2 22:13:33 10° NW 22:16:32 33° NNE 22:16:32 33° NNE
Meteor 1-11 Rocket 3.7 22:11:05 10° NNW 22:16:44 77° W 22:18:13 51° S
Cosmos 1340 Rocket 3.2 22:17:22 54° NE 22:17:22 54° NE 22:20:42 10° NNE
USA 281 3.6 22:14:24 35° SSW 22:16:55 52° WSW 22:23:22 10° NNW
Meteor 2-10 4.0 22:13:02 10° N 22:18:40 83° E 22:19:41 60° SSE
USA 59 Rocket 2.1 22:18:09 10° N 22:21:14 21° NE 22:22:59 17° ENE
Cosmos 1331 Rocket 3.8 22:17:12 10° NNW 22:22:29 83° WSW 22:23:13 66° S
Cosmos 1110 Rocket 4.0 22:19:04 10° NNW 22:24:23 74° WSW 22:25:12 61° SSW
CZ-2C R/B 3.5 22:22:52 10° NNE 22:27:22 81° E 22:27:22 81° E
Cosmos 1726 4.0 22:29:17 10° NW 22:31:07 20° WNW 22:31:07 20° WNW
Nadezhda 4 Rocket 3.9 22:30:38 48° SSW 22:32:31 81° W 22:38:46 10° N
Molniya-1 4.2 22:35:26 48° WSW 22:36:34 75° NW 22:45:39 10° NE
Cosmos 1805 4.1 22:37:26 10° N 22:40:09 43° NNE 22:40:09 43° NNE
IRIDIUM 106 4.2 22:39:11 10° N 22:44:26 79° E 22:44:45 75° SE
USA 229 DEB 4.4 22:39:44 10° NW 22:47:01 51° WSW 22:49:11 41° SSW
USA 229 4.4 22:39:50 10° NW 22:47:08 51° WSW 22:49:18 41° SSW
Cosmos 1743 Rocket 4.0 22:43:49 10° NNW 22:47:56 52° W 22:47:56 52° W
Sich 1 3.9 22:48:36 10° NNW 22:52:35 42° W 22:52:35 42° W
Cosmos 1975 3.6 22:54:09 10° N 22:57:09 50° N 22:57:09 50° N
Cosmos 1603 4.5 22:57:30 29° WSW 23:00:04 47° WNW 23:05:35 10° NNE
Cosmos 1626 4.1 23:04:41 23° NNE 23:04:41 23° NNE 23:06:01 10° NNE
Cosmos 1340 4.4 23:00:23 10° NNW 23:02:14 26° NW 23:02:14 26° NW
Cosmos 1627 Rocket 4.4 23:05:12 61° SSW 23:06:25 85° W 23:12:47 10° N
USA 267 3.1 23:02:12 10° NE 23:08:47 79° SE 23:10:42 49° SW
NOSS 2-1 (C) 4.2 23:05:09 10° NNW 23:09:02 50° NE 23:09:07 50° ENE
Cosmos 2369 Rocket 4.2 23:10:18 10° WNW 23:13:23 15° W 23:14:10 15° WSW
Cosmos 2026 Rocket 4.0 23:12:23 57° SW 23:13:39 74° W 23:19:58 10° N
USA 306 4.0 23:12:29 10° NW 23:15:15 38° NNW 23:15:15 38° NNW
Cosmos 1833 Rocket 3.8 23:17:10 29° E 23:17:10 29° E 23:21:14 10° NE
NOSS 3-3 (C) 4.0 23:26:07 54° E 23:26:07 54° E 23:31:32 10° NE
Cosmos 1515 Rocket 4.3 23:31:37 48° NE 23:31:37 48° NE 23:34:55 10° NNE
Cosmos 1328 Rocket 4.3 23:33:11 48° NW 23:33:11 48° NW 23:36:50 10° N
ALOS 2 3.1 23:36:13 55° NW 23:36:13 55° NW 23:39:48 10° NNW
Spot 4 4.4 23:37:28 47° WNW 23:37:28 47° WNW 23:41:33 10° NNW
H-2A R/B 4.1 23:38:30 27° WNW 23:38:30 27° WNW 23:41:09 10° NW
Cosmos 1553 Rocket 3.7 23:32:56 10° N 23:39:02 88° E 23:39:39 74° SSE
Cosmos 1470 Rocket 4.1 23:38:08 10° NNW 23:41:47 57° NNW 23:41:47 57° NNW
USA 234 3.7 23:38:50 19° ESE 23:43:31 59° NNE 23:49:55 10° NW
Lacrosse 4 Rocket 2.3 23:43:22 10° NNW 23:46:28 45° N 23:46:28 45° N
Cosmos 1818 3.5 23:53:37 86° WNW 23:53:39 86° WNW 23:59:10 10° NNE
Cosmos 1633 Rocket 4.5 23:52:01 10° NNW 23:55:08 30° WNW 23:55:08 30° WNW
